Regional Weather Roundup
Issued by NWS Newport/Morehead, NC

Current Version | Previous Version | Graphics & Text | Print | Product List | Glossary On
Versions: 1 2 3 4 5 6 7 8 9 10 11 12 13 14 15 16 17 18 19 20 21 22 23 24 25 26 27 28 29 30 31 32 33 34 35 36 37 38 39 40 41 42 43 44 45 46 47 48 49 50
886 ASUS42 KMHX 260725 RWRMHX WEATHER ROUNDUP FOR EASTERN NORTH CAROLINA NATIONAL WEATHER SERVICE NEWPORT/MOREHEAD CITY NC 300 AM EDT TUE SEP 26 2017 NOTE: "FAIR" INDICATES FEW OR NO CLOUDS BELOW 12,000 FEET WITH NO SIGNIFICANT WEATHER AND/OR OBSTRUCTIONS TO VISIBILITY NCZ015>017-031-032-045>047-102-103-260800- NORTH COAST CITY SKY/WX TMP DP RH WIND PRES REMARKS EDENTON CLOUDY 73 71 95 CALM 29.86F FOG ELIZABETH CITY CLOUDY 73 73 100 N15 29.86F KITTY HAWK CLOUDY 71 71 100 NE9G20 29.81F FOG MANTEO CLOUDY 73 72 98 NE17G24 29.82F FOG $$ NCZ045>047-081-094-103-104-260800- CENTRAL COAST CITY SKY/WX TMP DP RH WIND PRES REMARKS FRISCO CLOUDY 77 76 96 NE16G29 29.74F $$ NCZ095-097-098-100-101-260800- SOUTHERN COAST CITY SKY/WX TMP DP RH WIND PRES REMARKS BEAUFORT CLOUDY 74 74 100 N18G29 29.76F CEDAR ISLAND NOT AVBL JACKSONVILLE CLOUDY 73 72 96 N14 29.80F PINEY ISLAND N/A N/A N/A N/A N21G31 29.76F WILMINGTON CLOUDY 74 70 87 N12 29.80F $$ NCZ011>013-027>030-043-044-078>080-089-090>093-098-260800- COASTAL PLAIN CITY SKY/WX TMP DP RH WIND PRES REMARKS AHOSKIE CLOUDY 69 69 99 N7 29.89F CLINTON CLOUDY 72 70 94 N9 29.86S ELIZABETHTOWN NOT AVBL GOLDSBORO CLOUDY 71 71 100 N9 29.85F GREENVILLE CLOUDY 72 70 94 NE10G16 29.88F HAVELOCK CLOUDY 73 73 100 N17G24 29.80F KENANSVILLE CLOUDY 70 68 94 N12 29.85F KINSTON CLOUDY 71 68 90 N8 29.85F NEW BERN CLOUDY 72 72 100 N13G20 29.82F RICHLANDS CLOUDY 72 70 94 N13G18 29.83F ROCKY MOUNT CLOUDY 71 69 93 N12 29.89F WASHINGTON CLOUDY 72 70 93 NE10G17 29.84F WHITEVILLE CLOUDY 72 68 87 CALM 29.84S $$ AMZ130-135-150-152-154-156-158-170-250-252-270-ANZ085-086-088-633-658-670-260800- MARINE OBSERVATIONS STATION/POSITION TIME TEMP WIND PRES WAVE SWELL AIR SEA DIR/SP/G HT/PER HT/PER (UTC) (F) (DEG/KT/KT) (MB) (FT/S) (FT/S) CHESAPEAKE LIGHT NOT AVBL 64 E VA BEACH 0650 71 70 40/ 17/ 19 1010.9 17/15 15/15 DUCK 0700 72 76 30/ 24/ 29 1009.9 2 E DUCK 0700 76 N/A 10/14 7/14 OREGON INLET 0700 74 75 20/ 19/ 25 1008.6 13E OREGON INLT 0648 75 N/A 13/15 13/15 HATTERAS CG 0700 76 77 30/ 20/ 28 1006.7 DIAMOND BUOY 0650 77 78 20/ 23/ 27 1004.7 17/14 16/14 CAPE LOOKOUT 0700 75 360/ 23/ 28 1006.7 BEAUFORT LAB 0700 74 74 360/ 14/ 22 1007.1 30 SE NEW RVR IN 0608 76 10/ 23/ 31 1006.7 30 SE NEW RVR IN NOT AVBL 27 SE WRIGHTSVLE 0608 76 79 10/ 21/ 27 1007.3 5 SE WRIGHTSVLE 0608 75 78 10/ 14/ 25 1008.6 225 S CAPE HAT 0650 78 81 300/ 33/ 41 994.3 18/11 10/11 41 SE CHARLESTON 0710 78 81 340/ 14/ 17 1009.1 $$

USA.gov is the U.S. government's official web portal to all federal, state and local government web resources and services.